Location: Fontevrault
(47.1823°N, 0.0493°E)
Time: 04:07:37
(UTC+00:00)

Meteor 1-21 Rocket - Pass Details

Date: 28 October 2021
Orbit: 834 x 907 km, 81.2° (Epoch: 07 December)

Event Time Altitude Azimuth Distance (km) Brightness Sun altitude
Rises 04:41:44 0° 139° (SE) 3,405 7.9 -20.1°
Reaches altitude 10° 04:45:01 10° 119° (ESE) 2,488 7.5 -19.6°
Maximum altitude 04:48:23 16° 82° (E) 2,087 7.3 -19.0°
Drops below altitude 10° 04:51:48 10° 45° (NE) 2,529 7.3 -18.4°
Sets 04:55:09 0° 26° (NNE) 3,488 7.8 -17.8°
